This is the latest recevied weather packets stored in our database for station/object EA1L-13. If no packets are shown the sender has not sent any weather packets the latest 10 day(s).
| Time | Temp. | Humidity | Pressure | Rain* | Wind** | Luminosity | Snow |
|---|---|---|---|---|---|---|---|
| 1778143504 | 14.44° C | 100% | 1008.9 hPa | 0 mm | - | - | - |
| 1778142605 | 13.89° C | 100% | 1009.1 hPa | 0 mm | - | - | - |
| 1778141704 | 13.33° C | 100% | 1009.1 hPa | 0 mm | - | - | - |
| 1778140804 | 12.78° C | 100% | 1009.3 hPa | 0 mm | - | - | - |
| 1778139904 | 11.67° C | 100% | 1009.4 hPa | 0 mm | - | - | - |
| 1778139005 | 11.67° C | 100% | 1009.5 hPa | 0 mm | - | - | - |
| 1778138104 | 11.11° C | 100% | 1009.5 hPa | 0 mm | - | - | - |
| 1778137204 | 10.56° C | 100% | 1009.6 hPa | 0 mm | - | - | - |
| 1778136305 | 10.56° C | 100% | 1009.5 hPa | 0 mm | - | - | - |
| 1778135405 | 10° C | 100% | 1009.5 hPa | 0 mm | - | - | - |
| 1778134505 | 10° C | 100% | 1009.4 hPa | 0 mm | - | - | - |
| 1778133604 | 9.44° C | 100% | 1009.4 hPa | 0 mm | - | - | - |
| 1778132704 | 9.44° C | 100% | 1009.4 hPa | 0 mm | - | - | - |
| 1778131805 | 9.44° C | 100% | 1009.3 hPa | 0 mm | - | - | - |
| 1778130904 | 8.89° C | 100% | 1009.3 hPa | 0 mm | - | - | - |
| 1778130006 | 8.89° C | 100% | 1009.4 hPa | 0 mm | - | - | - |
| 1778129104 | 8.89° C | 100% | 1009.3 hPa | 0 mm | - | - | - |
| 1778128205 | 8.89° C | 100% | 1009.5 hPa | 0 mm | - | - | - |
| 1778127305 | 8.89° C | 100% | 1009.5 hPa | 0 mm | - | - | - |
| 1778126405 | 8.89° C | 100% | 1009.5 hPa | 0 mm | - | - | - |
| 1778125504 | 8.89° C | 100% | 1009.7 hPa | 0 mm | - | - | - |
| 1778124605 | 8.89° C | 100% | 1009.8 hPa | 0 mm | - | - | - |
| 1778123704 | 9.44° C | 100% | 1009.8 hPa | 0 mm | - | - | - |
| 1778122804 | 9.44° C | 100% | 1009.9 hPa | 0 mm | - | - | - |
| 1778121904 | 9.44° C | 100% | 1009.9 hPa | 0 mm | - | - | - |
* Rain latest hour (hover to see other rain measurements)
** Current wind speed in m/s (hover to see current wind gust speed)